Location: Munkebjergskolens Observatorium
(55.3864°N, 10.3987°E)
Time: 05:16:08
(UTC+02:00)

QB50P2 - Pass Details

Date: 07 April 2023
Orbit: 581 x 596 km, 98.0° (Epoch: 31 May)

Event Time Altitude Azimuth Distance (km) Brightness Sun altitude
Rises 02:34:14 0° 21° (NNE) 2,835 ? -26.1°
Reaches altitude 10° 02:36:36 10° 32° (NNE) 1,925 ? -26.0°
Enters shadow 02:40:19 32° 94° (E) 1,028 ? -25.8°
